Location: Alpine
(43.1636°N, 111.0180°W)
Time: 05:16:43
(UTC+00:00)

Tiros 1 despin weight - Pass Details

Date: 28 May 2022
Orbit: 591 x 639 km, 48.2° (Epoch: 30 June)

Event Time Altitude Azimuth Distance (km) Brightness Sun altitude
Rises 00:10:33 0° 215° (SW) 2,883 ? 27.1°
Reaches altitude 10° 00:13:01 10° 206° (SSW) 1,971 ? 26.7°
Maximum altitude 00:17:06 34° 142° (SE) 1,019 ? 26.0°
Drops below altitude 10° 00:21:08 10° 78° (ENE) 1,952 ? 25.2°
Sets 00:23:34 0° 69° (ENE) 2,850 ? 24.8°
